Regional Weather Roundup
Issued by NWS

Home | Current Version | Previous Version | Graphics & Text | Print | Product List | Glossary On
Versions: 1 2 3 4 5 6 7 8 9 10 11 12 13 14 15 16 17 18 19 20 21 22 23 24 25 26 27 28 29 30 31 32 33 34 35 36 37 38 39 40 41 42 43 44 45 46 47 48 49 50
430
ASUS45 KPSR 290510
RWRAZ

ARIZONA HOURLY REGIONAL WEATHER ROUNDUP
NATIONAL WEATHER SERVICE PHOENIX AZ
1000 PM MST SAT MAY 28 2016

NOTE: FAIR INDICATES FEW OR NO CLOUDS BELOW 12,000 FEET WITH NO
SIGNIFICANT WEATHER AND/OR OBSTRUCTIONS TO VISIBILITY.

AZZ001>003-036-290600-
NORTHWEST ARIZONA

CITY           SKY/WX    TMP DP  RH WIND       PRES   REMARKS
KINGMAN        CLEAR     70  27  20 MISG      29.95R
$$

AZZ004>008-015-016-018-290600-
NORTH CENTRAL ARIZONA

CITY           SKY/WX    TMP DP  RH WIND       PRES   REMARKS
GRAND CANYON   PTCLDY    45  26  47 CALM      30.15R
WILLIAMS       CLEAR     57  16  19 SW6G12    30.23R
PRESCOTT       CLEAR     62  21  20 S6        30.06R
FLAGSTAFF      CLEAR     45  22  40 CALM      30.18R
PAYSON         CLEAR     66  21  18 CALM      30.08R
PAGE           CLEAR     72  30  21 CALM      29.98R
$$

AZZ009>014-017-290600-
NORTHEAST ARIZONA

CITY           SKY/WX    TMP DP  RH WIND       PRES   REMARKS
WINSLOW        CLEAR     63  22  20 SW9       30.04R
SAINT JOHNS    PTCLDY    62  17  17 S6        30.08R
WINDOW ROCK    MOCLDY    64  27  24 N10       30.16S
SHOW LOW       CLEAR     54  18  24 S9        30.14R
$$

AZZ023-290600-
GREATER PHOENIX AREA

CITY           SKY/WX    TMP DP  RH WIND       PRES   REMARKS
PHOENIX        CLEAR     85  34  16 W17G24    29.80R
BUCKEYE        CLEAR     81  32  17 SW9       29.84R
LUKE AFB       CLEAR     85  35  16 SW23      29.80R
DEER VALLEY    CLEAR     83  34  17 SW13      29.82R
SCOTTSDALE     CLEAR     84  34  16 W14G23    29.84R
MESA-GATEWAY   CLEAR     82  34  17 SW10      29.84R
$$

AZZ027-028-290600-
SOUTHWEST MARICOPA COUNTY AND PINAL COUNTY

CITY           SKY/WX    TMP DP  RH WIND       PRES   REMARKS
CASA GRANDE    CLEAR     82  32  16 W13       29.86R
GILA BEND      FAIR      81  29  15 S6        29.83R
$$

AZZ503-504-507>509-290600-
SOUTHEAST ARIZONA

CITY           SKY/WX    TMP DP  RH WIND       PRES   REMARKS
TUCSON         CLEAR     79  26  14 NW5       29.95R
DAVIS-MONTHAN  CLEAR     78  12   8 W1        29.94R
NOGALES        CLEAR     70   9   9 SE5       30.03R
SIERRA VISTA   CLEAR     69   2   7 SW17      30.08S
DOUGLAS        CLEAR     66   4   8 CALM      30.06R
SAFFORD        CLEAR     79  13   8 NW14      29.91R
$$

AZZ020-021-025-026-031-290600-
SOUTHWEST ARIZONA

CITY           SKY/WX    TMP DP  RH WIND       PRES   REMARKS
YUMA           CLEAR     76  38  25 S3        29.80R
$$

CAZ031-033-041-043-047-048-061-290600-
SOUTHERN CALIFORNIA

CITY           SKY/WX    TMP DP  RH WIND       PRES   REMARKS
DOWNTOWN L.A.  CLOUDY    62  53  72 VRB3      29.96R
L.A. AIRPORT   CLOUDY    59  53  80 SW6       29.97R
SAN DIEGO      CLOUDY    63  55  75 W6        29.99R
BURBANK        CLOUDY    58  53  84 S7        29.96R
ONTARIO        MOCLDY    61  54  77 W10       29.95R
RIVERSIDE      CLEAR     61  53  75 W8        29.95R
PALM SPRINGS   CLEAR     79  53  40 NW14      29.82R
EL CENTRO NAS  CLEAR     75  40  28 SE6       29.78R
IMPERIAL       CLEAR     80  40  23 SE8       29.76R
BLYTHE         CLEAR     84  34  16 SW6       29.79R
NEEDLES        CLEAR     87  28  12 W13       29.79R
$$

NVZ020-UTZ003-290600-
SOUTHERN NEVADA-UTAH

CITY           SKY/WX    TMP DP  RH WIND       PRES   REMARKS
LAS VEGAS      CLEAR     81  24  12 SW6       29.80R
SALT LAKE CITY MOCLDY    65  40  39 SE6       30.07R
$$

NMZ009-TXZ055-290600-
NEW MEXICO-WEST TEXAS

CITY           SKY/WX    TMP DP  RH WIND       PRES   REMARKS
ALBUQUERQUE    MOCLDY    70  17  13 E6        30.08R
EL PASO        PTCLDY    74   3   6 N7        29.98R
$$


........................KEY........................
SKY/WX - SKY CONDITION/WEATHER
TMP    - TEMPERATURE IN FAHRENHEIT
DP     - DEW POINT IN FAHRENHEIT
RH     - RELATIVE HUMIDITY IN PERCENT
WIND   - DIRECTION AND SPEED IN MILES PER HOUR (MPH)
VRB    - VARIABLE WIND DIRECTION
PRES   - MEAN SEA LEVEL PRESSURE IN INCHES OF MERCURY
         F - FALLING PRESSURE   R - RISING PRESSURE
         S - STEADY PRESSURE
VSB    - VISIBILITY IN MILES
HX     - HEAT INDEX IN FAHRENHEIT
WCI    - WIND CHILL INDEX IN FAHRENHEIT
TC     - TEMPERATURE IN CELSIUS WHICH IS ALSO KNOWN AS
         TEMPERATURE IN CENTIGRADE
AFB    - AIR FORCE BASE
         LUKE AFB IS LUKE AIR FORCE BASE
         DAVIS-MONTHAN IS DAVIS-MONTHAN AIR FORCE BASE
NAS    - NAVAL AIR STATION
         EL CENTRO NAS IS EL CENTRO NAVAL AIR STATION
N/A    - NOT AVAILABLE





USA.gov is the U.S. government's official web portal to all federal, state and local government web resources and services.